GFSWCAN_850_dewp_105.txt.gz
Dewpoint
-4 -3 -3 -3 -4 -2 -1 -1 -1 -1 -2 -2 -4 -3 -7 -6 -7 -4 -2 -2 -0 -1 -3 -4 -4 -5 -5 -7 -4 -5 -5 -5 -6 -3 -5 -3 -1 -4 -1 2 -2 -2 -2 -2 -4 -1 2 -4 -4 -1 -2 -4 -5 -5
-3 -3 -3 -3 -2 -1 -1 -1 -2 -2 -5 -6 -5 -8 -8 -7 -3 -2 -1 -3 -4 -1 -2 -3 -3 -4 -4 -5 -7 -6 -5 -8 -6 -5 -6 -5 -2 -1 -1 -0 -2 1 2 2 0 1 -3 -4 -4 -4 -4 -4 -4 -5
-4 -3 -2 -2 -1 -1 -1 -2 -3 -6 -9 -5 -4 -2 -2 -2 -2 -3 -0 -4 -3 -3 -4 -5 -4 -4 -7 -9 -6 -8 -7 -5 -6 -3 -3 -3 -1 -4 -1 0 -1 -2 -3 -0 -1 -2 -4 -4 -5 -4 -4 -5 -5 -5
-5 -3 -3 -2 -2 -2 -2 -3 -6 -9 -6 -3 -4 -4 -3 -4 -3 -5 -1 -2 -2 -5 -3 -4 -5 -4 -4 -7 -6 -4 -4 -4 -5 -5 -3 -2 -3 -3 -1 -1 1 -3 -3 -2 -2 -3 -4 -5 -4 -5 -5 -6 -7 -7
-4 -3 -2 -3 -3 -3 -4 -5 -7 -7 -3 -3 -4 -6 -6 -7 -6 -2 -2 -5 -4 -2 -5 -5 -5 -4 -5 -5 -5 -6 -6 -8 -10 -9 -3 -4 -5 -3 -3 -4 -3 -4 1 -1 1 -4 -2 -4 -4 -5 -5 -6 -6 -7
-4 -3 -2 -3 -3 -4 -7 -10 -9 -5 -4 -4 -6 -8 -8 -8 -5 -4 -6 -7 -6 -6 -7 -4 -4 -4 -4 -4 -4 -4 -5 -6 -8 -8 -9 -8 -3 -3 -1 -0 -3 -4 -4 -3 -2 -3 -3 -4 -4 -5 -5 -6 -7 -7
-3 -3 -3 -3 -3 -4 -9 -9 -7 -6 -5 -6 -6 -5 -5 -5 -3 -5 -3 -4 -6 -3 -3 -5 -6 -4 -3 -5 -4 -5 -5 -5 -6 -8 -9 -10 -7 -5 -2 -1 -4 -4 -3 -3 -3 -4 -4 -5 -5 -6 -7 -7 -7 -8
-2 -2 -2 -2 -3 -5 -8 -8 -8 -7 -5 -5 -5 -5 -7 -7 -8 -5 -7 -8 -9 -3 -3 -4 -4 -5 -4 -6 -4 -4 -5 -6 -5 -6 -7 -8 -7 -6 -3 -2 -4 -3 -3 -4 -4 -4 -5 -6 -7 -7 -8 -8 -8 -9
-2 -3 -2 -3 -4 -6 -7 -8 -9 -7 -4 -6 -7 -7 -6 -4 -3 -5 -9 -10 -12 -3 -4 -5 -3 -2 -4 -4 -4 -4 -5 -3 -6 -5 -7 -7 -4 -3 -4 -4 -4 -4 -4 -3 -4 -5 -6 -7 -7 -8 -8 -8 -9 -9
-2 -2 -2 -3 -3 -4 -7 -8 -10 -7 -6 -7 -7 -5 -2 -3 -9 -11 -10 -4 -4 -5 -4 -4 -5 -2 -4 -4 -4 -4 -5 -5 -4 -5 -6 -4 -5 -4 -5 -4 -3 -4 -4 -4 -5 -5 -6 -7 -7 -8 -8 -8 -9 -9
-2 -3 -4 -4 -3 -6 -6 -8 -7 -6 -7 -7 -4 -3 -5 -9 -4 -5 -4 -5 -6 -6 -6 -5 -4 -3 -4 -2 -3 -6 -5 -5 -4 -2 -5 -4 -5 -4 -3 -3 -3 -4 -3 -4 -5 -5 -5 -6 -7 -7 -8 -8 -9 -9
-3 -3 -4 -4 -3 -4 -6 -6 -7 -7 -7 -6 -6 -4 -7 -4 -5 -4 -5 -5 -7 -7 -5 -4 -5 -5 -4 -5 -5 -5 -5 -4 -2 -4 -4 -4 -2 -4 -3 -3 -3 -4 -4 -4 -3 -5 -4 -6 -6 -7 -8 -8 -9 -10
-4 -4 -4 -3 -3 -6 -7 -8 -8 -10 -9 -7 -5 -5 -6 -6 -3 -4 -3 -4 -3 -4 -3 -4 -1 -3 -4 -4 -3 -4 -1 -1 -3 -1 -2 -1 -4 -4 -3 -3 -4 -4 -4 -4 -4 -4 -5 -6 -7 -7 -8 -9 -11 -11
-4 -5 -5 -4 -6 -7 -10 -10 -9 -7 -5 -6 -6 -4 -3 -3 -4 -4 -3 -1 -2 -3 -4 -2 -1 -2 -2 -2 -3 -3 -2 -3 -2 -1 -1 -2 -4 -4 -4 -3 -4 -5 -5 -5 -5 -6 -7 -7 -8 -9 -10 -10 -11 -12
-6 -4 -5 -6 -7 -9 -9 -9 -9 -6 -4 -5 -6 -4 -3 -4 -3 -2 -3 -3 -2 -2 -3 -3 -3 -3 -2 -2 -4 -4 -3 -2 -2 0 -1 -3 -4 -5 -5 -5 -6 -6 -6 -7 -6 -6 -6 -7 -9 -10 -10 -11 -12 -20
-5 -4 -5 -6 -8 -9 -8 -10 -9 -5 -4 -4 -4 -3 -3 -3 -1 -2 -2 -2 -2 -2 -2 -4 -2 -2 -2 -3 -3 -3 -2 -2 1 -2 -3 -4 -5 -5 -6 -7 -6 -6 -7 -7 -7 -7 -8 -9 -10 -11 -11 -15 -23 -22
-4 -4 -4 -6 -8 -9 -9 -6 -6 -5 -5 -4 -3 -3 -2 -2 -2 -2 -2 -1 -2 -3 -1 -5 -3 -3 -5 -4 -4 -3 0 -0 -3 -4 -4 -5 -5 -6 -7 -7 -7 -8 -7 -7 -8 -9 -10 -11 -11 -13 -21 -22 -21 -22
-4 -5 -5 -7 -8 -10 -10 -5 -5 -6 -5 -3 -3 -3 -3 -3 -3 -3 -3 -2 -3 -4 -5 -3 -4 -3 -3 -3 -1 -0 -2 -4 -4 -5 -5 -6 -6 -7 -7 -8 -9 -9 -9 -9 -10 -10 -11 -12 -17 -15 -18 -18 -18 -18
-4 -5 -7 -9 -8 -6 -7 -5 -5 -6 -4 -4 -4 -4 -3 -4 -4 -3 -3 -3 -3 -4 -4 -5 -4 -3 -2 -1 -0 -2 -3 -3 -5 -6 -6 -7 -7 -7 -8 -9 -10 -10 -10 -10 -10 -11 -13 -15 -13 -14 -14 -14 -13 -12
-7 -6 -7 -9 -9 -7 -7 -5 -5 -6 -4 -5 -5 -6 -6 -5 -4 -5 -3 -3 -4 -5 -5 -5 -3 -1 -1 -2 -1 -2 -3 -3 -5 -6 -7 -8 -7 -8 -9 -9 -9 -10 -10 -10 -12 -14 -14 -13 -13 -12 -12 -11 -11 -11
-6 -8 -9 -8 -4 -6 -6 -6 -5 -6 -6 -5 -6 -6 -6 -6 -6 -5 -4 -5 -5 -6 -6 -4 -2 -2 -4 -4 -4 -3 -4 -4 -4 -4 -5 -7 -8 -8 -9 -9 -9 -9 -9 -11 -12 -12 -11 -11 -11 -10 -11 -11 -11 -12
-7 -9 -8 -10 -5 -5 -5 -5 -6 -6 -6 -6 -6 -6 -6 -6 -5 -5 -5 -5 -6 -5 -4 -4 -3 -2 -4 -4 -5 -5 -6 -5 -5 -5 -6 -7 -8 -8 -8 -8 -9 -9 -9 -9 -10 -9 -9 -9 -10 -11 -11 -12 -12 -13
-8 -7 -7 -7 -7 -5 -5 -4 -5 -6 -6 -6 -6 -6 -5 -5 -5 -6 -6 -6 -5 -5 -4 -5 -4 -5 -3 -4 -5 -6 -6 -6 -6 -5 -7 -6 -7 -7 -8 -9 -8 -9 -9 -9 -9 -10 -10 -10 -11 -11 -12 -13 -13 -15
-10 -9 -9 -6 -5 -5 -4 -5 -7 -7 -6 -6 -6 -5 -5 -5 -5 -6 -6 -6 -3 -5 -5 -5 -5 -5 -5 -5 -5 -5 -6 -6 -5 -7 -6 -7 -7 -8 -8 -9 -9 -9 -9 -9 -10 -10 -10 -11 -11 -12 -12 -13 -13 -14
-8 -7 -5 -5 -5 -5 -6 -6 -6 -7 -5 -6 -5 -5 -5 -5 -5 -5 -5 -5 -4 -4 -5 -6 -6 -5 -4 -4 -5 -6 -6 -6 -6 -6 -7 -7 -7 -8 -9 -9 -9 -10 -9 -10 -10 -10 -11 -11 -12 -12 -13 -13 -14 -14
-8 -5 -5 -6 -5 -6 -6 -6 -6 -5 -6 -5 -5 -6 -5 -5 -5 -4 -6 -4 -5 -5 -6 -6 -6 -6 -6 -5 -5 -6 -7 -7 -7 -7 -8 -8 -8 -8 -9 -9 -9 -10 -10 -10 -10 -10 -11 -12 -12 -13 -13 -14 -15 -15
-8 -5 -6 -5 -6 -7 -6 -6 -7 -6 -5 -5 -5 -5 -5 -4 -4 -5 -4 -6 -5 -6 -7 -7 -6 -6 -6 -6 -6 -7 -7 -8 -7 -8 -9 -9 -9 -9 -9 -9 -10 -10 -10 -10 -10 -11 -11 -12 -12 -13 -14 -16 -17 -17
-6 -6 -5 -5 -5 -6 -5 -5 -5 -6 -5 -7 -6 -5 -5 -4 -3 -3 -4 -6 -8 -8 -8 -7 -7 -7 -7 -7 -7 -7 -8 -8 -8 -9 -10 -10 -10 -10 -10 -10 -9 -10 -10 -10 -10 -11 -11 -12 -13 -14 -16 -19 -24 -24
-6 -5 -5 -5 -5 -5 -5 -4 -4 -6 -6 -5 -4 -4 -4 -5 -7 -7 -7 -9 -8 -9 -8 -9 -8 -8 -8 -7 -8 -8 -8 -8 -9 -10 -10 -10 -11 -10 -10 -10 -10 -11 -12 -11 -11 -11 -12 -14 -16 -18 -22 -26 -27 -28
-6 -5 -6 -6 -5 -5 -4 -4 -4 -6 -7 -6 -6 -6 -7 -7 -8 -9 -9 -8 -9 -9 -9 -8 -9 -9 -9 -8 -8 -8 -9 -9 -9 -9 -8 -9 -9 -11 -11 -11 -11 -11 -11 -11 -12 -16 -17 -19 -23 -27 -28 -28 -29 -27
-5 -5 -5 -6 -6 -5 -6 -7 -7 -7 -7 -7 -7 -6 -4 -5 -7 -8 -8 -8 -8 -8 -8 -8 -9 -9 -9 -8 -9 -9 -9 -9 -10 -10 -9 -10 -10 -11 -11 -11 -11 -12 -14 -15 -15 -17 -24 -29 -29 -28 -28 -28 -27 -30
-6 -6 -6 -6 -6 -8 -8 -7 -6 -6 -6 -6 -5 -7 -7 -6 -5 -6 -8 -8 -8 -8 -8 -8 -8 -8 -9 -9 -8 -9 -9 -9 -10 -10 -10 -10 -10 -10 -10 -11 -11 -11 -12 -12 -19 -30 -31 -29 -28 -30 -27 -28 -30 -31
-6 -6 -6 -6 -6 -7 -7 -7 -6 -6 -7 -6 -6 -7 -7 -6 -6 -7 -8 -9 -9 -9 -9 -9 -9 -9 -9 -9 -9 -9 -9 -9 -10 -10 -10 -10 -10 -10 -10 -11 -11 -12 -12 -21 -32 -30 -28 -29 -29 -26 -29 -30 -31 -31

GFSWCAN_850_dewp_108.txt.gz
Dewpoint
-5 -3 -4 -4 -4 -3 -3 -2 -1 -1 -3 -2 -0 -1 -1 -3 -2 -1 -1 -1 0 -0 -1 0 -0 0 -2 -3 -2 -4 -4 -4 -4 -2 -3 -2 0 -5 -0 2 -4 -4 -3 -2 -3 -2 1 -4 -4 -1 -2 -4 -4 -5
-4 -3 -3 -3 -4 -3 -2 -1 -1 -1 -1 -0 -1 -1 -2 -3 -2 -2 -1 -1 -1 -0 -1 -2 -3 -3 -2 -2 -2 -6 -5 -6 -5 -5 -7 -5 -2 -1 -1 0 -1 2 2 2 1 1 -4 -4 -3 -3 -2 -4 -4 -5
-5 -4 -4 -3 -2 -1 -1 -1 -1 -2 -2 -2 -3 -2 -3 -3 -2 -2 -1 -1 -1 -2 -2 -2 -3 -5 -7 -6 -5 -6 -7 -5 -4 -2 1 -2 -1 -3 -0 1 -1 -2 -2 -0 -1 -3 -4 -4 -4 -4 -4 -5 -5 -5
-4 -4 -3 -2 -1 -1 -1 -2 -3 -5 -6 -5 -5 -6 -6 -2 -1 -2 -1 -1 -0 0 -1 -4 -4 -5 -6 -10 -4 -2 -5 -5 -5 -3 -1 -0 -1 -2 1 -1 -1 -4 -4 -2 -1 -3 -4 -5 -5 -5 -5 -5 -5 -6
-4 -4 -3 -2 -1 -1 -3 -5 -8 -7 -5 -3 -2 -3 -3 -2 -2 -2 -1 -0 -0 -0 -3 -4 -5 -5 -5 -6 -6 -5 -5 -5 -6 -6 -2 -1 -3 -2 -2 -2 -2 -3 1 -1 1 -4 -2 -4 -5 -5 -5 -5 -6 -6
-4 -4 -2 -2 -2 -2 -4 -9 -9 -4 -4 -4 -3 -3 -3 -3 -4 -1 -1 -1 -1 -2 -6 -3 -4 -4 -4 -4 -5 -5 -5 -7 -9 -8 -7 -5 -2 -3 -0 0 -3 -4 -2 -2 -2 -3 -3 -4 -5 -5 -5 -6 -6 -7
-4 -3 -2 -2 -4 -5 -6 -8 -3 -3 -3 -3 -4 -5 -7 -7 -1 -3 -2 -4 -4 -3 -5 -3 -5 -4 -4 -5 -5 -5 -5 -5 -7 -9 -9 -8 -6 -4 -1 -0 -4 -3 -2 -2 -3 -4 -4 -5 -5 -5 -6 -7 -7 -7
-3 -2 -2 -3 -5 -10 -10 -6 -5 -4 -3 -5 -5 -6 -5 -2 -2 -4 -4 -6 -4 -3 -3 -3 -3 -5 -3 -6 -4 -4 -6 -6 -5 -6 -7 -8 -7 -7 -1 -2 -3 -3 -3 -4 -4 -4 -5 -5 -6 -7 -7 -8 -8 -8
-2 -2 -2 -3 -8 -9 -7 -6 -5 -4 -4 -5 -5 -5 -5 -3 -4 -6 -7 -8 -7 -2 -4 -4 -3 -2 -3 -3 -4 -5 -5 -1 -6 -5 -7 -8 -2 -3 -2 -4 -3 -3 -4 -4 -4 -5 -6 -6 -7 -7 -8 -8 -8 -8
-2 -2 -2 -4 -8 -8 -8 -6 -4 -5 -6 -6 -5 -4 -3 -4 -7 -10 -10 -4 -5 -6 -4 -3 -3 -2 -4 -3 -4 -4 -5 -4 -3 -5 -5 -4 -2 -4 -4 -4 -4 -4 -4 -4 -5 -5 -6 -7 -8 -8 -8 -8 -8 -8
-2 -2 -3 -5 -7 -8 -8 -5 -5 -6 -7 -5 -3 -3 -5 -10 -5 -6 -5 -5 -6 -5 -6 -4 -5 -3 -4 -1 -3 -5 -4 -5 -5 -2 -5 -3 -4 -3 -4 -4 -4 -4 -4 -4 -5 -6 -6 -6 -7 -7 -8 -8 -8 -9
-2 -3 -3 -4 -6 -8 -8 -9 -6 -6 -5 -5 -4 -4 -5 -4 -5 -4 -4 -6 -5 -6 -5 -3 -5 -5 -5 -5 -4 -6 -6 -5 -3 -4 -4 -4 -2 -3 -2 -2 -2 -3 -4 -4 -4 -5 -5 -6 -7 -7 -8 -8 -8 -9
-3 -4 -4 -5 -7 -7 -7 -6 -6 -9 -7 -5 -5 -5 -6 -6 -2 -3 -3 -5 -2 -3 -2 -3 -0 -3 -5 -3 -3 -4 -1 -1 -4 -2 -3 -1 -3 -2 -2 -2 -3 -3 -4 -3 -4 -4 -5 -6 -7 -8 -8 -8 -9 -9
-4 -4 -4 -5 -6 -6 -7 -8 -7 -4 -4 -6 -5 -3 -2 -2 -4 -1 0 -1 -2 -3 -3 -2 -1 -1 -2 -1 -2 -2 -1 -3 -2 -2 0 -2 -3 -2 -3 -3 -4 -4 -4 -3 -4 -5 -6 -7 -7 -8 -8 -9 -10 -11
-4 -3 -4 -5 -7 -9 -9 -8 -6 -3 -4 -4 -5 -3 -3 -3 -2 -2 -2 -2 -1 -2 -3 -2 -2 -3 -3 -3 -3 -3 -3 -3 -3 1 -1 -3 -3 -3 -3 -4 -4 -4 -5 -5 -5 -6 -6 -7 -7 -8 -10 -11 -11 -13
-4 -4 -5 -8 -10 -10 -9 -7 -5 -4 -4 -4 -3 -3 -3 -2 -2 -1 -2 -1 -1 -2 -3 -4 -1 -1 -2 -3 -3 -3 -2 -1 0 -2 -3 -3 -4 -4 -5 -5 -5 -5 -6 -6 -6 -6 -6 -7 -8 -10 -10 -11 -13 -21
-4 -6 -7 -9 -9 -7 -5 -5 -5 -5 -5 -4 -2 -2 -1 -2 -2 -1 -2 -2 -2 -2 1 -5 -3 -4 -4 -4 -3 -3 -0 -1 -3 -4 -4 -4 -5 -5 -6 -6 -6 -7 -7 -7 -7 -7 -7 -8 -10 -10 -11 -16 -22 -21
-6 -7 -8 -9 -7 -7 -4 -5 -5 -6 -4 -2 -3 -3 -2 -3 -3 -3 -3 -1 -1 -4 -5 -3 -4 -4 -3 -3 0 -0 -3 -4 -5 -5 -5 -5 -5 -6 -6 -6 -7 -7 -7 -7 -8 -8 -9 -10 -11 -13 -20 -20 -21 -23
-6 -7 -9 -7 -5 -6 -6 -5 -5 -6 -3 -3 -3 -3 -3 -4 -4 -3 -3 -2 -3 -4 -4 -5 -4 -3 -1 -0 -1 -2 -3 -4 -5 -6 -6 -6 -7 -7 -7 -8 -8 -8 -9 -9 -9 -10 -11 -12 -13 -15 -15 -16 -15 -16
-9 -10 -11 -10 -6 -8 -6 -5 -5 -5 -3 -4 -4 -4 -4 -3 -5 -5 -3 -3 -3 -4 -5 -5 -2 -1 -1 -2 -2 -3 -3 -4 -5 -6 -7 -7 -7 -8 -8 -9 -9 -9 -10 -10 -10 -11 -13 -12 -13 -13 -14 -12 -11 -11
-9 -10 -8 -4 -6 -6 -5 -5 -4 -5 -6 -4 -5 -4 -5 -5 -5 -4 -3 -6 -4 -5 -5 -2 -3 -3 -3 -3 -3 -3 -3 -4 -4 -5 -6 -7 -8 -8 -8 -8 -9 -9 -9 -10 -12 -13 -12 -12 -12 -12 -11 -10 -10 -12
-9 -8 -5 -8 -5 -6 -5 -4 -5 -6 -5 -6 -6 -5 -4 -4 -4 -3 -5 -5 -6 -5 -5 -4 -4 -3 -4 -3 -4 -3 -4 -4 -4 -4 -5 -6 -7 -7 -8 -8 -9 -9 -9 -10 -12 -12 -11 -10 -11 -11 -11 -10 -11 -12
-7 -6 -6 -6 -5 -5 -5 -4 -5 -5 -5 -6 -6 -6 -6 -5 -5 -6 -6 -6 -5 -5 -5 -4 -4 -4 -3 -4 -5 -6 -6 -5 -5 -5 -5 -6 -7 -7 -8 -8 -9 -9 -9 -9 -9 -10 -9 -9 -10 -10 -11 -12 -12 -14
-11 -10 -8 -5 -5 -5 -5 -6 -7 -7 -6 -6 -6 -5 -6 -6 -5 -6 -5 -5 -3 -4 -4 -5 -5 -4 -4 -5 -4 -6 -6 -5 -5 -6 -6 -6 -7 -8 -8 -8 -9 -9 -9 -9 -9 -9 -9 -10 -11 -11 -12 -12 -13 -14
-7 -7 -4 -5 -5 -6 -6 -6 -5 -7 -5 -6 -5 -6 -5 -6 -5 -6 -6 -2 -5 -5 -5 -6 -5 -5 -5 -5 -5 -5 -6 -5 -6 -6 -6 -7 -7 -8 -8 -9 -9 -9 -9 -9 -9 -10 -10 -11 -11 -11 -12 -12 -13 -13
-6 -5 -5 -6 -6 -6 -7 -6 -6 -5 -6 -5 -6 -5 -5 -6 -5 -4 -4 -3 -4 -5 -5 -6 -6 -5 -5 -5 -5 -6 -6 -6 -6 -6 -7 -7 -8 -8 -9 -9 -9 -9 -9 -9 -9 -10 -11 -11 -11 -12 -12 -12 -13 -13
-7 -6 -6 -5 -7 -8 -6 -6 -7 -7 -6 -6 -6 -6 -6 -5 -4 -3 -4 -4 -5 -6 -6 -6 -6 -6 -5 -6 -6 -6 -7 -7 -6 -7 -8 -8 -8 -8 -9 -9 -9 -9 -10 -10 -10 -10 -11 -11 -11 -12 -12 -13 -14 -15
-7 -7 -6 -6 -6 -7 -5 -6 -5 -6 -6 -8 -6 -6 -6 -4 -2 -3 -4 -6 -8 -8 -7 -6 -6 -6 -6 -6 -7 -7 -7 -8 -8 -8 -9 -9 -9 -9 -9 -9 -9 -10 -10 -10 -10 -11 -11 -11 -12 -12 -13 -15 -15 -16
-6 -5 -6 -6 -5 -5 -5 -5 -5 -6 -5 -5 -4 -4 -4 -4 -4 -4 -6 -6 -6 -9 -9 -8 -8 -7 -7 -7 -7 -8 -8 -8 -8 -9 -9 -10 -10 -10 -9 -9 -9 -10 -10 -10 -10 -11 -11 -12 -12 -13 -15 -18 -22 -26
-6 -5 -6 -7 -6 -6 -4 -4 -4 -5 -6 -5 -5 -5 -6 -5 -8 -8 -8 -8 -8 -8 -7 -6 -8 -9 -9 -8 -8 -8 -8 -9 -9 -9 -8 -9 -10 -10 -10 -10 -10 -10 -11 -11 -11 -12 -12 -12 -14 -17 -20 -25 -28 -28
-5 -5 -6 -7 -7 -4 -5 -6 -6 -7 -7 -5 -6 -5 -4 -4 -5 -7 -7 -7 -6 -6 -6 -6 -7 -7 -7 -8 -8 -8 -9 -8 -9 -9 -9 -9 -10 -10 -11 -11 -11 -11 -11 -11 -11 -12 -15 -17 -19 -24 -28 -28 -29 -28
-6 -6 -7 -7 -5 -6 -8 -6 -5 -5 -5 -5 -5 -6 -5 -5 -5 -5 -6 -8 -7 -7 -7 -7 -7 -7 -8 -8 -8 -9 -9 -9 -9 -10 -10 -9 -10 -10 -11 -11 -11 -11 -11 -13 -15 -15 -17 -24 -29 -29 -28 -28 -28 -30
-5 -5 -5 -6 -6 -6 -6 -6 -6 -6 -6 -6 -6 -6 -6 -6 -5 -7 -7 -8 -8 -9 -9 -8 -8 -8 -8 -9 -9 -9 -9 -9 -10 -10 -10 -10 -10 -10 -11 -11 -11 -11 -12 -12 -13 -22 -30 -30 -28 -29 -28 -28 -30 -31

GFSWCAN_850_dewp_111.txt.gz
Dewpoint
-6 -7 -3 -3 -4 -4 -3 -2 -2 -2 -2 -3 -3 -3 -2 -0 -0 -1 -2 -1 -0 -0 -0 1 1 1 2 1 1 -3 -3 -4 -3 -1 1 1 3 0 1 -0 -3 -2 -0 0 -1 0 2 -3 -3 -1 -3 -4 -5 -5
-9 -7 -4 -3 -2 -3 -4 -4 -4 -4 -3 -2 -2 -2 -1 -1 -1 -2 -2 -1 -0 -0 -0 -0 -0 0 1 0 -3 -4 -4 -4 -4 -2 -3 -3 1 0 1 2 -1 -1 -1 0 0 -0 -3 -4 -4 -4 -4 -5 -5 -6
-11 -4 -4 -4 -3 -3 -4 -3 -4 -1 -3 -5 -4 -1 -1 -2 -3 -2 -1 -1 -1 -0 -0 -1 -2 -5 -4 -3 -3 -5 -5 -5 -3 -2 0 -0 -1 -1 0 0 0 -0 -1 -1 -1 -3 -4 -4 -4 -4 -5 -5 -6 -6
-10 -4 -4 -4 -3 -2 -1 -1 -2 -1 -4 -2 -1 -1 -2 -2 -2 -1 -2 -1 -0 -0 -0 -4 -4 -5 -12 -6 -5 -6 -6 -6 -5 -3 -1 1 1 0 0 -0 -1 -2 -2 -2 -1 -3 -4 -4 -4 -5 -5 -6 -6 -6
-6 -3 -4 -3 -1 -1 -2 -2 -1 -1 -2 -2 -2 -2 -3 -3 -2 -1 -1 -0 -0 -0 -2 -4 -5 -5 -6 -7 -7 -9 -10 -8 -6 -4 -2 -1 -2 -1 -1 -1 -0 -1 -2 -2 -1 -4 -4 -4 -5 -5 -6 -6 -7 -7
-5 -3 -3 -2 -2 -3 -5 -5 -5 -5 -5 -5 -6 -7 -3 -2 -1 -1 -1 -0 -2 -2 -5 -1 -4 -4 -4 -5 -5 -5 -6 -6 -6 -5 -4 -2 -2 -2 -1 0 -2 -2 -2 -3 -2 -3 -5 -5 -5 -5 -6 -6 -7 -7
-4 -3 -2 -2 -4 -7 -8 -5 -4 -3 -3 -3 -3 -2 -2 -1 -1 -2 -1 -2 -2 -2 -5 -3 -4 -4 -4 -5 -5 -5 -5 -5 -5 -9 -6 -4 -3 -3 -2 -1 -2 -1 -2 -3 -3 -4 -4 -5 -5 -6 -6 -6 -6 -7
-3 -2 -2 -3 -7 -8 -4 -4 -3 -3 -3 -3 -3 -4 -4 -2 -1 -4 -3 -4 -2 -3 -4 -2 -2 -4 -4 -4 -4 -4 -6 -6 -6 -6 -7 -4 -6 -5 -1 -2 -2 -2 -3 -4 -4 -4 -5 -5 -5 -6 -6 -7 -7 -8
-2 -2 -4 -6 -7 -5 -4 -4 -3 -5 -6 -6 -5 -3 -2 -1 -2 -6 -4 -4 -5 -3 -3 -3 -2 -2 -4 -3 -5 -5 -5 -2 -6 -3 -4 -5 -2 -2 -2 -3 -3 -3 -4 -4 -4 -5 -5 -5 -6 -7 -7 -8 -8 -8
-2 -3 -9 -9 -7 -5 -5 -5 -5 -5 -4 -4 -4 -3 -1 -2 -7 -7 -9 -8 -6 -7 -4 -2 -3 -2 -3 -3 -3 -3 -4 -2 -2 -3 -5 -3 -2 -3 -3 -3 -4 -4 -4 -4 -5 -5 -6 -7 -7 -7 -8 -8 -8 -8
-2 -3 -8 -8 -6 -5 -4 -5 -5 -4 -4 -3 -3 -3 -5 -8 -5 -6 -6 -4 -5 -3 -4 -3 -4 -2 -4 -2 -2 -4 -2 -3 -2 -2 -3 -2 -2 -3 -4 -3 -5 -4 -5 -4 -5 -6 -6 -7 -8 -8 -8 -8 -8 -9
-2 -5 -8 -8 -6 -4 -5 -6 -6 -5 -5 -4 -7 -7 -5 -4 -5 -3 -2 -4 -3 -4 -4 -3 -3 -4 -4 -4 -3 -5 -3 -3 -1 -3 -3 -4 -2 -3 -4 -4 -4 -4 -4 -4 -5 -6 -7 -7 -8 -8 -7 -8 -9 -9
-2 -4 -5 -7 -6 -6 -5 -6 -6 -8 -7 -6 -6 -5 -5 -5 -4 -4 -3 -3 -2 -2 -3 -4 -2 -5 -3 -4 -3 -3 -5 -3 -3 -5 -3 -2 -1 -2 -3 -4 -3 -3 -3 -3 -5 -5 -6 -6 -6 -6 -7 -8 -9 -9
-3 -3 -5 -7 -8 -6 -6 -8 -8 -4 -5 -6 -5 -6 -4 -4 -3 -1 0 -2 -2 -2 -2 -2 -2 -2 -2 -4 -4 -6 -4 -3 -5 -4 -1 -2 -2 -2 -2 -2 -3 -3 -3 -3 -4 -5 -6 -6 -6 -6 -7 -8 -9 -9
-5 -5 -5 -5 -6 -8 -8 -4 -3 -4 -4 -4 -4 -3 -3 -2 -2 -2 -3 -1 -1 -2 -4 -2 -3 -4 -4 -6 -5 -4 -5 -5 -4 -0 -1 -2 -2 -3 -3 -3 -4 -3 -3 -4 -4 -5 -5 -6 -7 -7 -8 -9 -10 -11
-4 -4 -6 -6 -6 -7 -8 -6 -5 -5 -4 -4 -3 -3 -3 -4 -3 -2 -1 -1 -1 -3 -4 -4 -3 -4 -4 -4 -3 -5 -2 -1 -2 -2 -3 -3 -3 -3 -3 -3 -4 -4 -5 -4 -5 -5 -5 -6 -7 -8 -9 -11 -11 -13
-6 -8 -9 -8 -5 -5 -6 -6 -5 -5 -4 -3 -3 -2 -2 -2 -2 -2 -2 -1 -1 -2 -2 -3 -5 -3 -4 -3 -2 -3 -2 -2 -4 -4 -4 -5 -5 -4 -4 -4 -4 -4 -5 -5 -6 -6 -6 -7 -7 -9 -10 -11 -15 -22
-8 -9 -9 -8 -4 -4 -5 -5 -6 -5 -3 -2 -3 -3 -3 -3 -3 -3 -3 -2 -1 -3 -3 -3 -4 -4 -5 -3 -1 -2 -4 -4 -5 -5 -5 -5 -5 -5 -5 -5 -6 -6 -6 -6 -7 -7 -7 -8 -9 -10 -11 -15 -21 -21
-9 -8 -8 -5 -6 -6 -5 -5 -6 -4 -3 -3 -3 -5 -5 -4 -4 -3 -3 -3 -3 -4 -4 -5 -5 -3 -1 -1 -2 -3 -4 -5 -5 -5 -6 -6 -6 -6 -6 -6 -7 -7 -7 -7 -8 -8 -8 -9 -10 -12 -16 -20 -21 -22
-11 -11 -7 -6 -7 -7 -5 -6 -5 -4 -4 -4 -5 -5 -4 -4 -6 -4 -3 -4 -5 -5 -4 -4 -2 -2 -2 -2 -3 -4 -4 -5 -6 -6 -6 -6 -7 -7 -7 -7 -8 -8 -8 -8 -8 -9 -11 -13 -13 -17 -19 -19 -21 -18
-8 -7 -9 -8 -8 -6 -4 -4 -5 -5 -5 -5 -5 -5 -5 -6 -6 -5 -6 -6 -4 -4 -4 -3 -4 -3 -2 -3 -3 -4 -4 -5 -5 -6 -6 -7 -8 -8 -8 -8 -8 -9 -9 -9 -10 -12 -12 -12 -13 -15 -14 -12 -12 -11
-7 -8 -12 -9 -6 -6 -5 -6 -6 -5 -5 -6 -4 -4 -5 -5 -6 -5 -6 -6 -7 -3 -4 -5 -4 -3 -3 -3 -3 -3 -4 -4 -4 -4 -5 -7 -8 -8 -8 -8 -9 -9 -9 -10 -11 -13 -11 -12 -13 -13 -11 -10 -10 -11
-7 -9 -9 -6 -6 -6 -5 -4 -5 -4 -5 -6 -6 -5 -6 -6 -5 -6 -6 -6 -5 -5 -5 -5 -5 -4 -4 -4 -4 -4 -4 -4 -4 -5 -5 -6 -7 -7 -8 -8 -9 -9 -9 -10 -12 -12 -11 -12 -11 -12 -10 -10 -10 -11
-13 -12 -8 -6 -6 -6 -6 -6 -7 -7 -7 -5 -5 -5 -6 -6 -6 -7 -5 -3 -4 -4 -5 -4 -4 -5 -4 -5 -5 -6 -5 -5 -5 -6 -6 -7 -7 -8 -8 -8 -9 -8 -9 -10 -11 -11 -9 -10 -10 -10 -11 -11 -12 -14
-10 -9 -5 -7 -5 -6 -7 -6 -6 -5 -6 -6 -6 -5 -6 -6 -5 -6 -5 -3 -5 -5 -5 -5 -5 -5 -5 -5 -5 -5 -5 -5 -6 -6 -6 -6 -7 -7 -8 -9 -9 -9 -8 -9 -9 -9 -9 -9 -10 -10 -11 -12 -14 -15
-8 -7 -7 -6 -7 -6 -6 -7 -8 -7 -7 -7 -5 -5 -6 -6 -7 -6 -3 -4 -5 -5 -5 -6 -6 -6 -5 -4 -5 -6 -6 -6 -6 -6 -6 -7 -7 -8 -8 -9 -8 -8 -8 -9 -9 -9 -9 -10 -11 -11 -12 -13 -13 -13
-8 -7 -6 -6 -6 -7 -7 -6 -7 -6 -7 -8 -7 -7 -7 -7 -7 -3 -5 -5 -5 -6 -6 -6 -6 -6 -6 -6 -6 -6 -7 -7 -6 -7 -7 -7 -7 -8 -8 -9 -9 -10 -9 -8 -9 -9 -10 -10 -11 -12 -12 -12 -12 -13
-7 -7 -8 -6 -7 -7 -7 -7 -8 -8 -7 -7 -6 -8 -7 -6 -3 -4 -4 -7 -8 -7 -6 -6 -6 -6 -6 -7 -7 -6 -6 -7 -7 -7 -7 -8 -8 -8 -8 -8 -9 -9 -9 -9 -9 -9 -10 -11 -12 -12 -12 -12 -13 -13
-6 -5 -6 -7 -7 -6 -6 -6 -6 -5 -4 -5 -7 -6 -4 -4 -4 -5 -5 -5 -7 -8 -8 -8 -7 -7 -7 -7 -7 -7 -7 -7 -8 -8 -8 -9 -9 -9 -8 -9 -9 -10 -10 -10 -10 -10 -11 -11 -11 -12 -12 -13 -14 -17
-5 -6 -6 -6 -8 -8 -4 -5 -4 -5 -6 -4 -5 -5 -5 -5 -6 -6 -6 -8 -8 -6 -6 -6 -7 -8 -8 -8 -8 -8 -8 -8 -9 -9 -9 -10 -10 -10 -9 -9 -9 -10 -10 -10 -10 -11 -11 -11 -12 -12 -13 -14 -17 -21
-6 -6 -7 -7 -7 -5 -5 -6 -6 -6 -7 -5 -6 -5 -4 -4 -5 -5 -6 -6 -6 -6 -6 -7 -7 -7 -8 -8 -8 -8 -8 -9 -9 -9 -8 -8 -9 -10 -10 -10 -10 -10 -10 -10 -11 -11 -11 -12 -12 -13 -15 -19 -25 -28
-6 -7 -7 -9 -5 -6 -6 -6 -6 -6 -6 -6 -6 -6 -6 -6 -6 -6 -6 -6 -7 -8 -7 -7 -7 -7 -7 -8 -8 -8 -8 -8 -9 -9 -9 -9 -9 -10 -11 -11 -10 -10 -11 -11 -11 -11 -12 -12 -15 -17 -23 -28 -29 -28
-6 -6 -6 -5 -6 -6 -7 -6 -7 -7 -7 -7 -7 -6 -7 -7 -6 -7 -7 -7 -8 -9 -8 -8 -8 -8 -8 -8 -8 -8 -9 -9 -9 -9 -10 -10 -10 -10 -11 -11 -11 -11 -11 -11 -12 -13 -14 -16 -21 -28 -29 -29 -28 -30

GFSWCAN_850_dewp_114.txt.gz
Dewpoint
-7 -8 -9 -5 -3 -3 -3 -5 -4 -5 -6 -7 -7 -6 -5 -4 -2 -1 -1 -1 -1 -0 -1 -1 -0 1 2 0 -0 0 0 -1 -3 -2 0 -0 0 0 -1 -2 -3 -3 -1 0 -0 0 1 -3 -3 -1 -4 -4 -4 -6
-8 -13 -11 -4 -3 -3 -3 -3 -2 -2 -4 -4 -4 -5 -2 -3 -2 -2 -1 -1 -1 -1 -0 -1 -1 0 2 -0 -2 -2 -3 -3 -4 -2 -2 -1 2 2 0 2 -0 -2 -3 -1 -1 -2 -3 -3 -3 -3 -5 -5 -5 -6
-15 -12 -7 -4 -4 -4 -4 -4 -4 -4 -3 -4 -5 -2 -2 -2 -1 -1 -1 -1 -1 -0 -1 -1 -1 0 1 -1 -2 -4 -4 -4 -3 -3 -1 -0 -0 -0 1 0 0 -0 -2 -2 -2 -3 -3 -3 -3 -4 -5 -6 -6 -7
-12 -10 -4 -4 -5 -5 -5 -5 -6 -6 -4 -5 -4 -2 -2 -1 -1 -1 -3 -1 -0 -1 -1 -1 -1 -2 0 -1 -2 -5 -7 -5 -3 -3 -1 0 1 -1 0 -1 -1 -1 -2 -2 -2 -3 -4 -3 -4 -4 -5 -6 -6 -7
-11 -5 -4 -4 -3 -2 -1 -2 -4 -4 -4 -3 -3 -2 -1 -1 -2 -2 -1 -1 -0 -1 -2 -4 -5 -5 -5 -5 -6 -6 -7 -7 -5 -4 -2 -0 -1 -0 -1 -1 -1 -1 -2 -2 -3 -4 -5 -4 -5 -5 -6 -6 -6 -7
-5 -4 -4 -2 -2 -1 -2 -2 -3 -3 -4 -5 -1 -1 -2 -2 -2 -2 -1 -1 -0 -2 -4 -2 -4 -4 -5 -7 -7 -8 -8 -6 -6 -5 -2 -1 -2 -2 -0 -0 -1 -2 -3 -3 -3 -4 -5 -5 -5 -6 -6 -7 -7 -8
-4 -3 -2 -2 -2 -2 -2 -1 -1 -1 -1 -1 -2 -3 -3 -2 -2 -1 -1 -1 -2 -1 -4 -4 -4 -4 -4 -5 -5 -5 -5 -5 -8 -7 -5 -3 -3 -2 -2 -1 -1 -2 -3 -4 -4 -4 -4 -5 -5 -6 -6 -7 -7 -7
-3 -2 -3 -7 -6 -5 -5 -5 -4 -4 -3 -4 -4 -3 -1 -1 -2 -2 -3 -2 -2 -2 -3 -2 -2 -4 -4 -4 -4 -4 -5 -6 -6 -6 -5 -4 -6 -3 -1 -2 -2 -3 -4 -4 -4 -4 -5 -5 -6 -6 -6 -6 -7 -8
-2 -3 -8 -6 -4 -4 -3 -2 -2 -2 -3 -2 -2 -2 -2 -1 -1 -3 -3 -2 -2 -2 -3 -3 -3 -4 -3 -3 -5 -5 -5 -3 -5 -3 -4 -4 -3 -2 -2 -2 -3 -3 -4 -4 -4 -5 -5 -5 -5 -5 -6 -7 -7 -8
-3 -6 -6 -3 -3 -3 -4 -4 -3 -3 -3 -2 -2 -2 -1 -3 -4 -3 -7 -7 -5 -6 -3 -3 -4 -3 -3 -2 -3 -4 -4 -3 -2 -3 -5 -3 -3 -2 -3 -3 -3 -4 -4 -5 -5 -5 -5 -5 -6 -6 -7 -7 -8 -8
-7 -7 -5 -4 -4 -4 -4 -4 -4 -2 -2 -2 -3 -2 -6 -6 -6 -7 -5 -6 -4 -4 -3 -3 -4 -3 -3 -3 -3 -4 -3 -3 -2 -2 -3 -2 -2 -3 -3 -4 -4 -5 -5 -5 -5 -5 -6 -6 -6 -7 -7 -8 -8 -8
-8 -6 -5 -4 -4 -4 -4 -3 -3 -4 -3 -3 -5 -7 -4 -4 -4 -5 -3 -5 -4 -4 -3 -3 -4 -4 -2 -4 -4 -3 -3 -4 -1 -3 -4 -4 -2 -3 -3 -4 -5 -5 -4 -5 -6 -6 -6 -7 -7 -7 -8 -8 -8 -9
-7 -6 -4 -4 -5 -4 -4 -4 -4 -5 -4 -3 -5 -5 -7 -5 -6 -6 -5 -4 -3 -3 -3 -3 -3 -4 -4 -5 -4 -4 -6 -4 -4 -7 -4 -3 -2 -3 -4 -4 -4 -4 -4 -5 -6 -6 -7 -7 -7 -7 -6 -7 -9 -9
-7 -6 -5 -5 -5 -5 -6 -7 -5 -5 -6 -7 -6 -6 -7 -7 -3 -1 -1 -3 -1 -2 -4 -3 -2 -3 -3 -4 -5 -6 -5 -5 -7 -5 -3 -3 -2 -3 -3 -4 -4 -4 -3 -4 -6 -7 -6 -6 -6 -6 -6 -7 -7 -9
-5 -7 -7 -6 -6 -7 -8 -6 -5 -6 -5 -5 -4 -3 -4 -2 -2 -2 -1 -1 -2 -4 -5 -3 -4 -4 -5 -7 -6 -6 -6 -6 -6 -6 -3 -3 -2 -2 -3 -3 -3 -3 -3 -4 -5 -5 -5 -5 -5 -6 -7 -7 -8 -9
-7 -7 -7 -8 -8 -5 -5 -5 -8 -6 -5 -4 -3 -4 -3 -4 -3 -2 -1 -1 -2 -5 -5 -4 -4 -6 -5 -5 -5 -6 -4 -5 -6 -3 -3 -2 -3 -3 -2 -3 -3 -3 -3 -4 -4 -4 -5 -5 -6 -6 -7 -8 -8 -9
-6 -5 -6 -7 -8 -7 -8 -9 -7 -5 -4 -3 -3 -2 -3 -3 -2 -2 -1 -1 -2 -4 -5 -4 -5 -4 -5 -4 -3 -3 -3 -4 -3 -3 -3 -4 -4 -3 -3 -3 -3 -4 -4 -4 -5 -5 -6 -6 -6 -7 -8 -9 -10 -13
-7 -6 -5 -6 -6 -8 -8 -6 -5 -5 -3 -3 -3 -3 -3 -3 -3 -2 -2 -3 -3 -3 -3 -4 -4 -5 -8 -3 -3 -4 -4 -5 -5 -5 -5 -5 -4 -4 -4 -4 -4 -4 -4 -5 -5 -6 -6 -7 -7 -8 -9 -10 -14 -20
-8 -6 -5 -6 -7 -6 -6 -5 -6 -3 -3 -3 -3 -4 -4 -4 -3 -2 -3 -4 -4 -4 -5 -6 -5 -4 -2 -2 -3 -4 -5 -5 -5 -5 -6 -6 -5 -5 -5 -5 -5 -5 -6 -6 -6 -7 -7 -7 -7 -8 -9 -11 -20 -21
-8 -6 -6 -7 -8 -7 -6 -7 -5 -5 -4 -4 -5 -5 -5 -5 -4 -3 -5 -6 -6 -5 -4 -4 -3 -2 -3 -3 -4 -4 -5 -5 -6 -6 -6 -6 -6 -6 -6 -6 -6 -6 -7 -7 -8 -8 -8 -9 -9 -10 -11 -16 -20 -22
-7 -9 -8 -8 -8 -5 -4 -5 -5 -5 -6 -5 -5 -6 -6 -6 -6 -6 -7 -7 -5 -2 -2 -3 -3 -3 -3 -4 -4 -4 -5 -5 -6 -6 -7 -7 -7 -7 -7 -7 -7 -8 -8 -8 -8 -9 -9 -10 -11 -12 -17 -20 -21 -21
-9 -10 -10 -9 -7 -6 -6 -6 -5 -5 -5 -4 -4 -5 -5 -6 -6 -6 -7 -7 -4 -3 -4 -5 -5 -3 -3 -3 -4 -4 -5 -5 -5 -6 -6 -7 -7 -8 -8 -8 -8 -9 -9 -9 -9 -9 -11 -13 -14 -17 -17 -15 -16 -13
-12 -13 -8 -7 -7 -6 -5 -4 -5 -4 -5 -5 -5 -5 -5 -5 -6 -7 -7 -7 -4 -5 -6 -5 -5 -3 -3 -4 -4 -4 -4 -4 -4 -5 -5 -7 -7 -7 -8 -8 -8 -9 -10 -10 -10 -12 -12 -12 -13 -14 -12 -11 -11 -11
-14 -12 -9 -6 -7 -7 -6 -7 -7 -7 -7 -5 -5 -6 -6 -7 -7 -7 -5 -4 -4 -5 -5 -5 -5 -5 -5 -4 -4 -4 -4 -5 -5 -6 -6 -7 -7 -8 -8 -8 -9 -9 -10 -10 -12 -12 -11 -12 -12 -13 -10 -10 -10 -11
-14 -7 -7 -10 -5 -8 -9 -9 -7 -7 -8 -6 -8 -6 -7 -6 -5 -7 -6 -4 -5 -6 -6 -6 -5 -6 -6 -6 -6 -6 -6 -5 -6 -6 -6 -7 -7 -7 -8 -8 -9 -9 -9 -10 -12 -11 -11 -11 -11 -11 -10 -10 -11 -12
-10 -7 -8 -8 -9 -9 -8 -9 -10 -9 -9 -9 -7 -6 -7 -7 -9 -7 -4 -4 -5 -5 -6 -6 -6 -6 -6 -6 -5 -5 -6 -6 -6 -7 -7 -7 -7 -7 -8 -8 -9 -8 -8 -9 -10 -11 -10 -10 -10 -10 -10 -11 -11 -12
-10 -10 -6 -6 -6 -7 -8 -7 -6 -9 -10 -9 -9 -9 -12 -9 -9 -5 -5 -5 -6 -6 -6 -6 -6 -6 -6 -6 -6 -5 -6 -6 -7 -6 -7 -7 -7 -7 -8 -8 -9 -9 -9 -9 -9 -9 -10 -9 -10 -10 -11 -11 -12 -13
-7 -7 -10 -7 -7 -7 -10 -11 -11 -10 -10 -6 -8 -10 -10 -8 -5 -4 -5 -5 -6 -6 -6 -6 -6 -6 -6 -7 -7 -7 -7 -7 -7 -6 -7 -7 -7 -8 -8 -9 -8 -9 -9 -9 -9 -9 -9 -9 -10 -10 -11 -12 -12 -12
-7 -6 -7 -11 -7 -7 -6 -9 -8 -5 -4 -5 -11 -10 -6 -5 -5 -5 -5 -6 -8 -7 -7 -7 -6 -7 -7 -7 -7 -8 -8 -7 -7 -7 -8 -8 -8 -8 -8 -8 -9 -9 -9 -9 -9 -9 -9 -10 -10 -11 -11 -12 -12 -12
-5 -6 -6 -8 -12 -10 -6 -6 -5 -5 -5 -4 -5 -5 -4 -6 -5 -5 -6 -6 -6 -6 -6 -7 -7 -7 -7 -7 -7 -8 -8 -8 -8 -8 -8 -9 -9 -9 -9 -9 -9 -9 -10 -9 -9 -10 -10 -10 -11 -11 -12 -12 -12 -13
-6 -7 -7 -7 -9 -6 -6 -5 -5 -6 -5 -5 -5 -5 -4 -5 -6 -6 -6 -6 -6 -7 -7 -7 -7 -7 -7 -8 -8 -8 -8 -9 -9 -9 -9 -8 -9 -10 -10 -9 -9 -10 -10 -10 -10 -10 -11 -11 -11 -12 -12 -12 -13 -15
-7 -8 -8 -11 -7 -6 -6 -7 -6 -7 -7 -7 -6 -6 -6 -6 -6 -7 -7 -8 -7 -7 -7 -7 -7 -7 -7 -8 -8 -8 -8 -9 -9 -9 -9 -9 -9 -10 -10 -10 -10 -10 -10 -10 -10 -10 -11 -11 -11 -12 -13 -14 -17 -22
-8 -7 -6 -6 -7 -7 -7 -7 -7 -8 -8 -8 -8 -7 -7 -7 -7 -7 -8 -8 -8 -8 -8 -8 -8 -8 -8 -8 -8 -8 -9 -9 -9 -9 -9 -9 -9 -9 -10 -10 -10 -10 -11 -11 -11 -11 -11 -12 -12 -13 -15 -20 -26 -28

GFSWCAN_850_dewp_117.txt.gz
Dewpoint
-7 -7 -8 -7 -7 -5 -5 -3 -5 -7 -11 -9 -8 -7 -6 -7 -7 -5 -4 -2 -1 -1 -1 -1 -1 -0 1 0 -0 -0 1 0 -0 1 1 1 -1 -2 -2 -4 -2 -1 1 0 -1 -0 -1 -3 -3 -2 -4 -4 -5 -4
-10 -13 -13 -12 -7 -4 -3 -3 -6 -3 -5 -13 -12 -9 -7 -7 -6 -4 -2 -2 -2 -1 -1 -1 -1 -1 -0 1 -1 0 -1 -1 -1 0 -1 0 1 -1 -1 0 -2 -3 -3 -2 -1 -2 -3 -3 -3 -4 -5 -5 -6 -6
-12 -14 -15 -11 -8 -4 -3 -3 -3 -4 -5 -6 -7 -8 -9 -7 -4 -3 -1 -1 -1 -1 -1 -1 -1 -0 -0 1 -0 -2 -3 -4 -3 -4 -1 -1 -0 -1 -0 -1 0 -1 -3 -2 -2 -3 -3 -3 -4 -5 -5 -6 -6 -6
-13 -16 -13 -9 -5 -4 -5 -4 -3 -3 -2 -4 -5 -6 -6 -5 -3 -2 -2 -2 -1 -1 -2 -1 -2 -1 1 1 1 -2 -5 -2 -2 -2 -2 -2 0 -1 -0 -1 -0 -1 -3 -2 -2 -3 -3 -3 -4 -5 -5 -6 -7 -7
-12 -11 -9 -5 -4 -4 -5 -6 -4 -4 -3 -3 -4 -3 -3 -2 -2 -2 -2 -1 -0 -1 -2 -1 -1 -0 0 -1 -1 -3 -5 -4 -4 -4 -2 -1 -1 -0 -2 -1 -1 -2 -2 -2 -2 -4 -4 -4 -4 -5 -6 -6 -7 -7
-6 -6 -5 -4 -3 -4 -3 -7 -7 -6 -5 -3 -2 -2 -2 -1 -1 -2 -2 -1 -1 -0 -3 -1 -3 -2 -3 -2 -2 -5 -6 -7 -6 -3 -2 -1 -1 -1 -0 -0 -1 -1 -3 -5 -3 -4 -5 -4 -5 -5 -6 -6 -6 -7
-6 -3 -2 -2 -1 -1 -2 -4 -5 -6 -5 -3 -3 -2 -2 -1 -1 -2 -2 -2 -2 -1 -3 -4 -4 -4 -4 -5 -5 -5 -5 -5 -8 -6 -4 -2 -3 -2 -2 -1 -2 -2 -3 -4 -4 -5 -5 -5 -5 -6 -6 -6 -7 -8
-3 -2 -3 -2 -1 -1 -1 -3 -5 -5 -3 -2 -2 -1 -1 -2 -2 -1 -1 -3 -2 -2 -2 -4 -3 -4 -4 -4 -4 -5 -5 -6 -5 -6 -4 -4 -5 -3 -1 -2 -2 -3 -4 -4 -4 -4 -5 -5 -5 -6 -7 -7 -7 -8
-3 -5 -3 -3 -2 -1 -1 -1 -1 -1 -1 -1 -2 -2 -2 -1 -1 -1 -1 -2 -1 -1 -4 -4 -4 -4 -3 -3 -4 -5 -5 -3 -4 -3 -4 -4 -3 -2 -3 -2 -3 -4 -4 -4 -4 -5 -5 -5 -6 -6 -7 -7 -7 -7
-6 -3 -3 -3 -3 -3 -4 -3 -3 -2 -2 -2 -2 -2 -1 -1 -1 -1 -2 -2 -2 -2 -2 -3 -4 -3 -3 -3 -3 -4 -4 -3 -3 -3 -5 -3 -3 -2 -2 -2 -3 -4 -4 -4 -5 -5 -5 -5 -6 -6 -7 -7 -8 -8
-4 -3 -3 -3 -3 -2 -2 -2 -2 -2 -2 -3 -2 -2 -1 -2 -4 -6 -5 -7 -4 -4 -3 -3 -3 -2 -3 -4 -3 -4 -3 -3 -2 -2 -4 -3 -3 -4 -2 -3 -3 -4 -4 -5 -5 -5 -5 -5 -6 -6 -7 -7 -8 -8
-3 -3 -3 -4 -4 -3 -2 -2 -2 -2 -3 -4 -3 -2 -4 -4 -5 -5 -4 -4 -4 -3 -3 -4 -4 -3 -2 -5 -4 -3 -3 -3 -1 -4 -4 -4 -5 -3 -3 -3 -4 -5 -5 -5 -5 -5 -5 -6 -6 -7 -7 -7 -8 -8
-4 -4 -3 -4 -2 -3 -3 -3 -3 -3 -3 -3 -5 -5 -6 -5 -7 -7 -5 -4 -4 -3 -3 -3 -3 -3 -5 -5 -4 -4 -5 -4 -5 -7 -5 -4 -3 -3 -4 -5 -5 -5 -5 -5 -5 -5 -6 -6 -6 -7 -7 -7 -8 -8
-3 -3 -3 -3 -3 -5 -4 -2 -3 -3 -4 -6 -6 -6 -6 -6 -3 -2 -2 -3 -1 -3 -3 -3 -3 -4 -5 -5 -5 -5 -5 -6 -7 -5 -4 -3 -2 -3 -4 -4 -4 -4 -4 -5 -5 -6 -6 -6 -6 -6 -6 -7 -7 -8
-3 -4 -4 -4 -4 -4 -3 -2 -4 -5 -6 -5 -5 -4 -4 -3 -2 -2 -2 -1 -2 -4 -5 -5 -4 -5 -6 -7 -6 -6 -6 -6 -6 -7 -4 -2 -2 -3 -3 -3 -4 -4 -4 -5 -6 -6 -6 -6 -6 -6 -6 -6 -7 -8
-4 -6 -5 -5 -5 -4 -5 -6 -9 -6 -5 -4 -3 -4 -4 -4 -2 -1 -1 -1 -3 -5 -5 -4 -4 -6 -5 -5 -5 -6 -5 -6 -8 -4 -3 -2 -2 -3 -3 -3 -4 -4 -3 -4 -5 -5 -5 -5 -5 -6 -6 -7 -7 -8
-7 -7 -7 -6 -6 -7 -10 -10 -7 -4 -4 -3 -3 -3 -3 -3 -3 -2 -2 -2 -4 -6 -4 -4 -6 -4 -5 -5 -3 -4 -5 -5 -4 -3 -3 -5 -4 -3 -3 -3 -3 -3 -3 -4 -4 -5 -5 -5 -6 -6 -7 -8 -8 -9
-7 -7 -7 -8 -7 -9 -10 -7 -5 -4 -3 -3 -4 -3 -3 -3 -2 -2 -3 -4 -4 -3 -4 -4 -5 -5 -8 -3 -3 -4 -4 -5 -5 -5 -5 -5 -4 -3 -3 -3 -3 -3 -4 -4 -4 -5 -5 -6 -6 -7 -8 -8 -9 -10
-5 -5 -6 -8 -9 -9 -6 -6 -5 -4 -4 -3 -3 -3 -4 -3 -2 -4 -4 -5 -5 -6 -6 -5 -4 -3 -5 -4 -3 -5 -5 -5 -6 -5 -5 -5 -5 -4 -4 -4 -4 -4 -4 -4 -5 -6 -6 -6 -7 -7 -8 -9 -9 -11
-5 -6 -7 -9 -9 -8 -7 -7 -6 -5 -4 -5 -6 -6 -4 -3 -3 -6 -6 -6 -5 -4 -4 -4 -4 -3 -4 -4 -5 -5 -5 -5 -6 -6 -6 -6 -6 -5 -5 -5 -5 -5 -6 -6 -6 -7 -7 -8 -8 -8 -8 -9 -9 -12
-7 -7 -7 -10 -10 -6 -5 -5 -6 -6 -6 -5 -5 -6 -6 -6 -6 -7 -7 -7 -4 -3 -4 -4 -4 -3 -3 -4 -5 -5 -5 -5 -6 -6 -6 -6 -6 -6 -6 -6 -6 -6 -6 -7 -7 -8 -8 -8 -8 -9 -9 -9 -11 -19
-12 -11 -12 -11 -8 -6 -6 -6 -5 -6 -5 -4 -5 -5 -5 -6 -5 -6 -7 -6 -4 -3 -4 -5 -5 -3 -4 -4 -5 -5 -6 -6 -6 -6 -6 -7 -7 -7 -7 -7 -7 -7 -7 -8 -8 -8 -8 -9 -9 -9 -10 -13 -20 -21
-13 -13 -8 -9 -7 -6 -5 -4 -5 -5 -7 -6 -5 -5 -5 -5 -6 -7 -7 -6 -4 -5 -6 -5 -5 -3 -3 -4 -4 -4 -5 -5 -5 -5 -6 -6 -7 -7 -7 -8 -8 -8 -9 -9 -9 -9 -9 -10 -11 -11 -12 -17 -20 -17
-14 -12 -8 -7 -7 -7 -6 -6 -7 -7 -6 -5 -5 -6 -5 -6 -7 -7 -6 -4 -5 -5 -6 -6 -6 -5 -4 -4 -4 -5 -5 -5 -5 -6 -6 -7 -7 -8 -8 -8 -8 -9 -9 -10 -10 -10 -11 -11 -11 -11 -11 -12 -15 -14
-14 -7 -7 -11 -5 -9 -10 -9 -6 -8 -8 -7 -7 -6 -6 -7 -6 -9 -7 -5 -6 -6 -6 -6 -6 -6 -6 -6 -6 -6 -5 -5 -6 -6 -6 -7 -7 -8 -8 -8 -8 -9 -9 -9 -10 -12 -12 -11 -11 -11 -11 -11 -11 -11
-13 -6 -8 -9 -10 -9 -9 -9 -10 -10 -10 -9 -8 -6 -7 -8 -10 -9 -5 -4 -6 -6 -6 -6 -6 -6 -6 -6 -6 -6 -6 -6 -7 -6 -7 -7 -7 -7 -7 -8 -8 -9 -9 -9 -11 -12 -12 -11 -11 -11 -11 -10 -11 -11
-10 -11 -6 -6 -6 -7 -9 -7 -7 -10 -10 -9 -10 -9 -13 -10 -10 -7 -5 -5 -6 -6 -6 -6 -6 -6 -7 -6 -7 -5 -5 -5 -6 -7 -6 -6 -6 -7 -7 -7 -8 -8 -9 -9 -9 -11 -11 -11 -10 -10 -10 -11 -11 -11
-7 -7 -12 -7 -7 -6 -11 -12 -11 -10 -10 -7 -9 -10 -9 -9 -7 -4 -5 -6 -6 -6 -7 -6 -6 -7 -7 -7 -6 -6 -7 -7 -7 -7 -7 -7 -7 -7 -7 -8 -9 -8 -9 -9 -9 -9 -9 -9 -10 -10 -10 -11 -11 -12
-7 -6 -8 -13 -7 -7 -6 -8 -9 -6 -5 -5 -11 -10 -6 -5 -5 -5 -6 -6 -7 -7 -7 -7 -6 -6 -6 -7 -7 -7 -8 -8 -8 -7 -7 -7 -8 -8 -8 -9 -9 -9 -9 -9 -9 -9 -9 -9 -10 -10 -10 -11 -11 -12
-5 -6 -7 -10 -13 -10 -6 -6 -6 -6 -5 -5 -5 -5 -5 -5 -6 -6 -6 -6 -7 -7 -7 -7 -7 -8 -7 -8 -8 -8 -8 -8 -8 -8 -8 -8 -8 -9 -9 -9 -9 -9 -9 -9 -9 -9 -9 -9 -10 -10 -11 -11 -12 -12
-7 -7 -7 -8 -10 -7 -6 -7 -7 -6 -6 -6 -5 -5 -5 -6 -7 -6 -6 -7 -7 -7 -7 -7 -7 -7 -7 -7 -8 -8 -8 -9 -8 -9 -9 -9 -9 -9 -9 -9 -9 -9 -10 -10 -9 -9 -10 -10 -10 -11 -11 -12 -12 -12
-8 -8 -9 -9 -8 -7 -7 -7 -7 -7 -6 -7 -6 -6 -6 -6 -6 -6 -7 -8 -7 -7 -7 -7 -7 -7 -7 -8 -8 -8 -9 -9 -9 -9 -9 -9 -9 -9 -10 -9 -9 -9 -10 -10 -10 -10 -10 -10 -11 -11 -12 -12 -12 -13
-6 -6 -6 -6 -8 -7 -7 -7 -7 -8 -8 -8 -8 -7 -7 -8 -8 -8 -8 -8 -8 -8 -8 -8 -8 -8 -8 -8 -8 -8 -8 -9 -9 -9 -9 -9 -9 -9 -10 -10 -10 -10 -10 -10 -10 -10 -11 -11 -11 -12 -12 -13 -13 -16

GFSWCAN_850_dewp_123.txt.gz
Dewpoint
-7 -7 -5 -5 -6 -6 -6 -7 -6 -6 -4 -5 -6 -6 -5 -4 -4 -4 -4 -5 -4 -3 -3 -2 -2 -1 -1 -2 -1 -1 1 1 1 1 -1 -0 1 -0 1 0 1 1 2 2 2 2 2 -3 -4 -2 -2 -3 -2 -3
-6 -6 -6 -7 -8 -8 -8 -7 -6 -10 -9 -7 -6 -6 -6 -5 -3 -3 -4 -5 -5 -3 -4 -5 -7 -5 -2 -2 -2 -1 -1 0 0 -0 -0 -0 1 0 -0 2 -2 2 1 1 -0 0 -3 -2 -3 -4 -5 -4 -3 -3
-7 -8 -9 -9 -10 -11 -14 -11 -10 -9 -9 -9 -9 -6 -6 -5 -3 -3 -5 -7 -3 -3 -3 -4 -8 -4 -2 -1 -0 -0 -0 -2 0 -0 0 1 2 -0 1 0 -1 -2 -4 -2 -2 -3 -3 -3 -3 -4 -5 -4 -3 -3
-11 -10 -11 -12 -13 -13 -14 -10 -5 -3 -4 -6 -10 -9 -7 -6 -5 -4 -5 -6 -6 -3 -3 -5 -5 -5 -8 -6 -2 -1 -1 -1 -1 -0 1 1 1 -1 0 -0 0 -3 -3 -3 -2 -3 -3 -3 -4 -5 -5 -5 -3 -4
-14 -15 -15 -15 -15 -11 -12 -12 -4 -4 -3 -3 -3 -5 -9 -7 -6 -5 -5 -6 -6 -7 -1 -3 -2 -4 -3 -2 -2 -2 -1 -0 0 0 1 1 0 1 -0 -0 -1 -3 -1 -1 -1 -4 -4 -4 -4 -5 -5 -6 -5 -4
-8 -12 -14 -15 -11 -8 -4 -6 -5 -4 -3 -3 -4 -3 -9 -10 -7 -4 -3 -5 -5 -5 -3 -1 -2 -1 -1 -1 -1 -1 -1 -0 0 -0 0 0 -1 -2 0 0 -2 -1 -3 -4 -3 -4 -5 -4 -4 -5 -6 -6 -6 -6
-10 -8 -6 -7 -6 -6 -5 -6 -6 -4 -3 -3 -5 -5 -10 -12 -9 -5 -3 -3 -8 -3 -2 -1 -1 -1 -1 -0 -0 -0 -0 -0 -0 -0 -1 -1 -1 -1 -0 1 -2 -2 -3 -4 -4 -5 -5 -4 -5 -6 -6 -7 -6 -6
-4 -4 -3 -4 -4 -6 -7 -8 -7 -5 -3 -4 -5 -7 -8 -8 -5 -5 -3 -1 -2 -2 -2 -1 -1 -1 -1 -1 -1 -1 -1 -1 -1 -5 -4 -3 -3 -1 1 -2 -3 -3 -4 -4 -5 -5 -5 -4 -5 -6 -7 -7 -7 -7
-2 -2 -2 -2 -2 -2 -8 -8 -7 -5 -2 -3 -4 -7 -5 -3 -3 -3 -6 -2 -2 -1 -1 -3 -1 -0 -1 -1 -1 -2 -3 -2 -4 -3 -4 -4 -3 -1 -2 -2 -3 -4 -4 -4 -5 -5 -5 -5 -6 -6 -7 -7 -7 -8
-2 -2 -3 -2 -2 -6 -10 -9 -7 -5 -2 -2 -2 -2 -2 -2 -2 -2 -2 -2 -2 -1 -1 -4 -5 -1 -2 -3 -3 -3 -5 -3 -2 -3 -4 -2 -2 -2 -2 -3 -3 -4 -4 -5 -5 -5 -5 -6 -6 -6 -6 -7 -7 -8
-2 -3 -3 -5 -8 -10 -10 -8 -5 -2 -2 -2 -2 -2 -2 -2 -2 -2 -2 -2 -2 -3 -3 -4 -4 -2 -4 -2 -2 -4 -3 -3 -2 -2 -3 -2 -1 -3 -3 -3 -4 -4 -4 -5 -5 -5 -5 -6 -6 -7 -7 -7 -8 -8
-2 -2 -2 -2 -2 -4 -3 -3 -2 -2 -2 -2 -2 -2 -2 -2 -3 -5 -5 -4 -4 -3 -3 -3 -3 -3 -4 -5 -3 -4 -3 -3 -1 -4 -3 -2 -4 -3 -3 -4 -4 -4 -4 -5 -5 -6 -5 -5 -6 -6 -7 -7 -8 -8
-3 -2 -2 -2 -2 -2 -2 -2 -2 -2 -3 -4 -5 -5 -4 -6 -6 -6 -5 -4 -3 -3 -4 -3 -2 -5 -6 -6 -4 -3 -4 -2 -4 -3 -3 -4 -3 -3 -3 -4 -4 -5 -5 -5 -6 -5 -5 -5 -6 -6 -7 -7 -7 -7
-3 -4 -3 -2 -2 -2 -2 -2 -3 -5 -6 -7 -5 -4 -5 -5 -4 -4 -2 -3 -3 -3 -3 -4 -4 -3 -5 -4 -5 -3 -4 -5 -3 -2 -4 -5 -3 -3 -4 -5 -5 -5 -5 -5 -6 -5 -5 -6 -6 -6 -6 -6 -7 -7
-4 -4 -3 -3 -2 -2 -3 -5 -7 -7 -7 -5 -5 -3 -3 -3 -3 -3 -2 -2 -2 -4 -6 -6 -5 -6 -5 -5 -5 -4 -4 -3 -4 -4 -4 -4 -3 -3 -5 -5 -5 -5 -5 -5 -6 -5 -5 -5 -6 -6 -6 -7 -7 -7
-5 -5 -4 -4 -4 -7 -6 -7 -8 -6 -4 -4 -4 -3 -4 -3 -2 -2 -2 -3 -4 -5 -7 -8 -5 -4 -4 -5 -5 -5 -5 -6 -6 -5 -3 -3 -3 -4 -4 -4 -5 -5 -4 -5 -6 -6 -6 -6 -6 -6 -7 -7 -7 -7
-6 -6 -6 -6 -4 -5 -7 -6 -6 -5 -4 -4 -4 -4 -4 -4 -3 -3 -3 -3 -4 -5 -4 -4 -4 -3 -5 -4 -3 -5 -4 -4 -4 -4 -3 -3 -3 -3 -3 -4 -4 -4 -4 -4 -5 -6 -6 -5 -6 -6 -7 -7 -7 -7
-7 -7 -7 -7 -8 -10 -8 -6 -6 -5 -4 -4 -5 -4 -3 -4 -3 -4 -4 -4 -5 -5 -5 -4 -5 -4 -4 -3 -4 -3 -4 -4 -4 -4 -4 -3 -3 -3 -2 -3 -4 -4 -4 -4 -5 -5 -5 -5 -6 -6 -6 -7 -7 -8
-7 -8 -9 -10 -11 -10 -7 -6 -6 -4 -4 -4 -4 -3 -3 -3 -4 -4 -5 -5 -6 -6 -5 -5 -4 -4 -4 -3 -3 -5 -5 -6 -5 -5 -5 -4 -4 -4 -4 -4 -4 -5 -5 -5 -5 -5 -6 -6 -6 -6 -6 -7 -8 -8
-7 -8 -11 -10 -11 -10 -7 -6 -6 -5 -5 -5 -5 -5 -4 -4 -6 -4 -5 -5 -6 -5 -5 -4 -4 -3 -4 -4 -5 -6 -5 -6 -6 -5 -5 -5 -5 -4 -4 -4 -4 -5 -5 -5 -5 -6 -6 -6 -6 -7 -7 -7 -8 -8
-11 -10 -10 -11 -10 -8 -6 -6 -6 -6 -6 -5 -6 -6 -6 -5 -7 -7 -7 -6 -5 -4 -4 -5 -4 -4 -5 -5 -5 -5 -6 -6 -6 -7 -7 -6 -6 -5 -6 -5 -5 -5 -5 -5 -6 -6 -6 -7 -7 -7 -8 -8 -8 -9
-14 -14 -13 -11 -9 -7 -6 -6 -6 -6 -6 -5 -5 -6 -6 -6 -7 -7 -7 -5 -5 -5 -5 -4 -4 -4 -5 -6 -6 -6 -6 -6 -6 -6 -6 -6 -6 -6 -6 -6 -6 -6 -6 -6 -7 -7 -7 -7 -8 -8 -8 -9 -9 -9
-15 -15 -13 -10 -7 -7 -5 -5 -6 -6 -8 -7 -5 -6 -6 -7 -7 -7 -7 -5 -5 -4 -4 -4 -4 -4 -4 -5 -5 -6 -6 -7 -6 -7 -7 -6 -6 -7 -7 -7 -7 -7 -7 -7 -7 -8 -8 -8 -8 -9 -9 -10 -10 -10
-14 -13 -8 -8 -7 -8 -7 -6 -7 -6 -6 -5 -6 -7 -7 -7 -8 -8 -6 -6 -4 -4 -6 -6 -4 -4 -4 -4 -4 -5 -5 -6 -6 -6 -6 -7 -7 -7 -8 -8 -7 -7 -8 -8 -8 -9 -9 -9 -9 -9 -10 -10 -11 -11
-13 -9 -9 -10 -7 -10 -10 -9 -9 -8 -7 -7 -7 -8 -7 -7 -8 -9 -6 -5 -5 -6 -6 -6 -5 -5 -5 -5 -4 -5 -5 -5 -6 -6 -7 -7 -8 -8 -8 -8 -8 -8 -9 -9 -9 -9 -9 -9 -10 -10 -10 -10 -11 -12
-15 -7 -10 -11 -10 -10 -9 -9 -10 -9 -9 -8 -8 -6 -7 -10 -9 -8 -6 -5 -6 -6 -7 -7 -7 -6 -7 -7 -6 -5 -6 -7 -7 -7 -7 -7 -8 -7 -7 -8 -9 -9 -9 -9 -10 -10 -10 -10 -10 -10 -11 -11 -11 -12
-14 -11 -6 -6 -6 -7 -9 -8 -8 -10 -10 -8 -8 -9 -10 -9 -9 -9 -5 -5 -6 -6 -6 -6 -7 -7 -6 -6 -6 -6 -5 -5 -6 -7 -7 -7 -7 -7 -7 -7 -8 -8 -9 -9 -10 -10 -10 -11 -11 -11 -11 -11 -11 -12
-8 -7 -11 -8 -7 -7 -12 -13 -12 -11 -10 -8 -9 -10 -9 -9 -8 -5 -6 -6 -6 -7 -7 -7 -7 -7 -6 -6 -6 -6 -6 -6 -6 -7 -7 -7 -6 -7 -7 -7 -8 -9 -9 -9 -10 -10 -11 -11 -11 -11 -11 -11 -11 -11
-6 -7 -8 -12 -8 -8 -7 -9 -8 -7 -6 -7 -11 -10 -9 -6 -6 -6 -6 -6 -6 -7 -7 -7 -7 -7 -7 -7 -7 -7 -7 -8 -8 -8 -7 -7 -7 -7 -8 -8 -8 -9 -9 -9 -9 -10 -11 -11 -10 -10 -10 -11 -11 -11
-6 -7 -9 -12 -13 -11 -7 -7 -7 -7 -6 -6 -6 -6 -6 -6 -6 -6 -6 -6 -7 -7 -7 -7 -7 -7 -7 -7 -7 -8 -9 -8 -8 -8 -8 -8 -8 -8 -8 -8 -9 -9 -9 -9 -9 -9 -10 -10 -10 -10 -10 -10 -11 -11
-7 -7 -7 -9 -11 -7 -8 -8 -8 -7 -7 -7 -6 -6 -6 -6 -7 -7 -6 -6 -7 -7 -7 -7 -7 -8 -7 -8 -8 -8 -8 -8 -8 -8 -8 -8 -9 -10 -9 -9 -9 -9 -10 -10 -9 -9 -9 -10 -10 -10 -10 -10 -11 -11
-8 -9 -9 -11 -11 -8 -8 -8 -8 -8 -7 -7 -7 -6 -6 -6 -6 -7 -7 -7 -7 -7 -7 -7 -7 -8 -8 -8 -8 -8 -9 -9 -9 -9 -9 -9 -9 -9 -9 -9 -9 -9 -9 -9 -9 -9 -9 -9 -10 -10 -10 -10 -11 -11
-7 -7 -8 -8 -8 -9 -8 -8 -9 -10 -9 -8 -8 -7 -6 -7 -7 -8 -7 -7 -7 -7 -7 -7 -7 -8 -8 -8 -8 -8 -9 -9 -9 -9 -9 -9 -9 -9 -10 -9 -9 -9 -10 -10 -10 -10 -10 -10 -10 -10 -11 -11 -11 -12